This demonstration page uses our WeatherBlox Daily Observations layout. Learn more.

Left ArrowRight Arrow

Hourly Observations for July 22, 2022

Temp ( °F °C ) Dew Point ( °F °C ) Humidity (%) Winds ( mph kmh ) Pressure ( in mb ) Visibility ( mi km ) Precip ( " mm )
12:08 am 00:08 Cloudy with Thunderstorms 81 27.2 57 13.9 44 44 S 15 24 29.85 1011 10 16 0.00 0.00
12:23 am 00:23 Cloudy with Strong Thunderstorms 77 25 61 16.1 58 58 VRB 5 7 29.90 1013 3 4 0.02 0.51
12:34 am 00:34 Cloudy with Strong Thunderstorms 72 22.2 63 17.2 73 73 WSW 16 26 29.94 1014 2 2 0.16 4.06
12:44 am 00:44 Cloudy with Strong Thunderstorms 72 22.2 65 18.3 79 79 S 12 19 29.93 1014 5 8 0.36 9.14
12:52 am 00:52 Windy with Storms Likely 73 22.8 64 17.8 74 74 SSW 22 35 29.95 1014 7 11 0.38 9.65
1:42 am 01:42 Cloudy 70 21.1 64 17.8 82 82 SSE 16 26 29.85 1011 10 16 0.03 0.76
1:52 am 01:52 Cloudy 71 21.7 63 17.2 76 76 SSE 18 30 29.84 1010 10 16 0.03 0.76
2:52 am 02:52 Partly Cloudy 70 21.1 63 17.2 79 79 NNE 6 9 29.88 1012 10 16 0.00 0.00
3:52 am 03:52 Partly Cloudy 72 22.2 60 15.6 66 66 E 9 15 29.90 1012 10 16 0.00 0.00
4:52 am 04:52 Mostly Cloudy 71 21.7 59 15 66 66 SE 15 24 29.88 1012 10 16 0.00 0.00
5:52 am 05:52 Mostly Cloudy 71 21.7 59 15 66 66 SSE 14 22 29.88 1012 10 16 0.00 0.00
6:52 am 06:52 Mostly Cloudy 72 22.2 57 13.9 59 59 SSE 13 20 29.90 1013 10 16 0.00 0.00
7:52 am 07:52 Mostly Cloudy 74 23.3 56 13.3 54 54 SSE 15 24 29.86 1011 10 16 0.00 0.00
8:52 am 08:52 Mostly Cloudy 79 26.1 57 13.9 47 47 S 10 17 29.89 1012 10 16 0.00 0.00
9:52 am 09:52 Mostly Cloudy 79 26.1 58 14.4 49 49 S 8 13 29.88 1012 10 16 0.00 0.00
10:52 am 10:52 Mostly Cloudy 83 28.3 62 16.7 49 49 S 16 26 29.88 1012 10 16 0.00 0.00
11:52 am 11:52 Mostly Cloudy 84 28.9 67 19.4 57 57 S 12 19 29.87 1011 10 16 0.00 0.00
12:52 pm 12:52 Mostly Cloudy 87 30.6 70 21.1 57 57 SSW 7 11 29.87 1012 10 16 0.00 0.00
1:52 pm 13:52 Partly Cloudy 89 31.7 72 22.2 57 57 VRB 5 7 29.86 1011 10 16 0.00 0.00
2:52 pm 14:52 Mostly Sunny 93 33.9 73 22.8 52 52 undefined N/A 29.84 1010 10 16 0.00 0.00
3:52 pm 15:52 Mostly Sunny 96 35.6 71 21.7 44 44 SSW 13 20 29.82 1010 10 16 0.00 0.00
4:52 pm 16:52 Partly Cloudy 97 36.1 72 22.2 45 45 SW 9 15 29.82 1010 10 16 0.00 0.00
5:52 pm 17:52 Partly Cloudy 97 36.1 72 22.2 45 45 WSW 12 19 29.81 1010 10 16 0.00 0.00
6:52 pm 18:52 Partly Cloudy 95 35 71 21.7 46 46 SSW 13 20 29.80 1009 10 16 0.00 0.00
7:52 pm 19:52 Mostly Sunny 94 34.4 70 21.1 46 46 S 10 17 29.81 1010 10 16 0.00 0.00
8:52 pm 20:52 Clear 92 33.3 70 21.1 49 49 S 9 15 29.81 1010 10 16 0.00 0.00
9:52 pm 21:52 Clear 89 31.7 71 21.7 55 55 S 9 15 29.82 1010 10 16 0.00 0.00
10:52 pm 22:52 Clear 86 30 72 22.2 63 63 S 7 11 29.83 1010 10 16 0.00 0.00
11:52 pm 23:52 Clear 84 28.9 73 22.8 70 70 SSE 8 13 29.85 1011 10 16 0.00 0.00

Powered by AerisWeather